Regional Weather Roundup
Issued by NWS Midland/Odessa, TX

Skip options and go directly to product.
Home | Oldest Version | Previous Version | Current Version | All | Text Only | Save Text | Print | Product List | Glossary On

Skip product version selection by date and time.   
757
ASUS44 KMAF 010002
RWRMAF
MIDLAND AREA WEATHER ROUNDUP
NATIONAL WEATHER SERVICE MIDLAND TX
700 PM CDT THU JUL 31 2014

...IN SOUTHWEST TEXAS AND SOUTHEAST NEW MEXICO...

CITY           SKY/WX    TMP DP  RH WIND       PRES   REMARKS
ALPINE         MOSUNNY   79  59  50 NE7       30.21F
ANDREWS        FAIR      84  55  36 E8        30.09F
ARTESIA        PTSUNNY   77  63  61 SE8       30.12F
BIG SPRING     SUNNY     84  56  37 NE10      30.08F
CARLSBAD       MOSUNNY   79  59  50 CALM      30.10F
DRYDEN           N/A     95  63  34 VRB6      29.98F
FORT STOCKTON  SUNNY     84  60  44 E9        30.08F
GUAD PASS      SUNNY     68  59  73 NE29      30.21F
HOBBS          MOSUNNY   82  54  36 E12       30.13F
MARFA          MOSUNNY   75  57  53 NE13G18   30.19F
MIDLAND AIRPK  SUNNY     85  57  38 E8        30.08F
MIDLAND INTL   SUNNY     84  57  39 NE12      30.07F
ODESSA         MOSUNNY   82  56  40 NE12      30.09F
PECOS          PTSUNNY   84  60  43 CALM      30.06F
PRESIDIO       FAIR      94  59  30 NE14G21   29.97F
SEMINOLE       MOSUNNY   85  53  33 NE9       30.11F
SNYDER         SUNNY     82  60  47 NE13      30.08F
WINK           MOSUNNY   87  58  37 NE8       30.05F
$$
...OTHER STATIONS IN TEXAS...

CITY           SKY/WX    TMP DP  RH WIND       PRES   REMARKS
ABILENE        MOSUNNY   81  63  54 N12       30.05S
AMARILLO       SUNNY     77  53  43 E7        30.16S
AUSTIN         PTSUNNY   94  71  47 VRB5      29.88F HX 101
BROWNSVILLE    MOSUNNY   89  74  60 SE18G25   29.90S
CORPUS CHRISTI MOSUNNY   90  72  55 SE20      29.89S
DALLAS FTW     CLOUDY    73  67  81 N16       29.99S
DEL RIO        RAIN      83  73  72 E21G30    29.90S
EL PASO        MOSUNNY   89  56  32 SE12G20   30.04F
HOUSTON INT    PTSUNNY   88  73  61 S9        29.89F
LUBBOCK        PTSUNNY   82  52  35 NE10      30.12F
SAN ANGELO     SUNNY     84  62  47 NE13      30.02F
SAN ANTONIO    PTSUNNY   95  69  42 CALM      29.90F HX 100
WACO           MOSUNNY   82  64  54 NW16      29.97R
WICHITA FALLS  NOT AVBL
$$
...OTHER LOCATIONS IN NEW MEXICO...

CITY           SKY/WX    TMP DP  RH WIND       PRES   REMARKS
ALAMAGORDO     MOSUNNY   86  55  35 SW9       30.09S
ALBUQUERQUE    CLOUDY    80  58  46 W10       30.18S
CANNON AFB     NOT AVBL
CLOVIS         NOT AVBL
HOLLOMAN AFB   MOSUNNY   86  55  35 S8        30.05F
ROSWELL        PTSUNNY   80  62  54 S9        30.11F
RUIDOSO        PTSUNNY   66  57  72 SE8       30.33S
SANTA FE       PTSUNNY   76  58  53 S7        30.25R
TRUTH OR CONSE CLOUDY    85  58  39 SE12      30.09F
TUCUMCARI      MOSUNNY   80  48  32 E7        30.16F
$$

USA.gov is the U.S. government's official web portal to all federal, state and local government web resources and services.